EW2082 Weather Reports


Display with metric or nautical units.
time (UTC)temp
F
wind
direction
speed
MPH
gust
MPH
rain 1hr
in
rain 24hr
in
rain mn
in
humidity
%
barometer
mb
20260902194004 83 172 0.0 3.0 0.00 0.00 0.00 52 1015.5
20260902193004 82 238 0.0 3.0 0.00 0.00 0.00 51 1015.6
20260902192005 82 9 0.0 2.0 0.00 0.00 0.00 52 1015.7
20260902191004 82 168 0.0 2.0 0.00 0.00 0.00 51 1015.9
20260902190005 81 172 0.0 3.0 0.00 0.00 0.00 53 1016.0
20260902185004 81 156 0.0 3.0 0.00 0.00 0.00 49 1016.0
20260902184004 81 168 0.0 1.0 0.00 0.00 0.00 54 1016.0
20260902183004 80 173 0.0 4.0 0.00 0.00 0.00 53 1016.0
20260902182004 81 99 0.0 3.0 0.00 0.00 0.00 55 1016.0
20260902181005 80 172 0.0 4.0 0.00 0.00 0.00 56 1015.9
20260902180007 80 170 3.0 4.0 0.00 0.00 0.00 56 1016.0
20260902175004 79 155 0.0 2.0 0.00 0.00 0.00 58 1016.1
20260902174004 79 170 0.0 3.0 0.00 0.00 0.00 59 1016.1
20260902173004 78 169 0.0 2.0 0.00 0.00 0.00 60 1016.1
20260902172004 78 172 0.0 3.0 0.00 0.00 0.00 60 1015.9
20260902171004 78 167 0.0 1.0 0.00 0.00 0.00 63 1015.9
20260902170004 77 171 0.0 3.0 0.00 0.00 0.00 63 1015.8
20260902165004 77 55 0.0 1.0 0.00 0.00 0.00 64 1015.8
20260902164004 76 171 0.0 3.0 0.00 0.00 0.00 65 1015.6
20260902161003 75 165 0.0 1.0 0.00 0.00 0.00 67 1015.7
20260902153005 74 176 0.0 2.0 0.00 0.00 0.00 73 1015.4
20260902152005 73 176 0.0 0.0 0.00 0.00 0.00 76 1015.5
20260902151005 72 176 0.0 0.0 0.00 0.00 0.00 79 1015.4
20260902150005 70 176 0.0 0.0 0.00 0.00 0.00 87 1015.5
20260902145005 67 176 0.0 0.0 0.00 0.00 0.00 94 1015.5
20260902144005 64 176 0.0 0.0 0.00 0.00 0.00 94 1015.5
20260902143005 61 176 0.0 0.0 0.00 0.00 0.00 94 1015.4
20260902142005 60 176 0.0 0.0 0.00 0.00 0.00 93 1015.2
20260902141005 60 176 0.0 0.0 0.00 0.00 0.00 94 1015.2
20260902140006 59 176 0.0 0.0 0.00 0.00 0.00 93 1015.1
20260902135005 59 176 0.0 0.0 0.00 0.00 0.00 93 1015.0
20260902134005 59 176 0.0 0.0 0.00 0.00 0.00 92 1014.9
20260902132005 59 176 0.0 0.0 0.00 0.00 0.00 92 1014.8
20260902131004 59 176 0.0 0.0 0.00 0.00 0.00 92 1014.8
20260902130006 59 176 0.0 0.0 0.00 0.00 0.00 92 1014.8
20260902125005 59 176 0.0 0.0 0.00 0.00 0.00 92 1014.8
20260902124005 60 176 0.0 0.0 0.00 0.00 0.00 92 1014.8
20260902122004 59 176 0.0 0.0 0.00 0.00 0.00 92 1014.9
20260902121004 59 176 0.0 0.0 0.00 0.00 0.00 91 1014.9
20260902120004 60 176 0.0 0.0 0.00 0.00 0.00 91 1015.0
20260902114004 60 176 0.0 0.0 0.00 0.00 0.00 91 1015.0
20260902113004 60 176 0.0 0.0 0.00 0.00 0.00 91 1015.1
20260902112004 60 176 0.0 0.0 0.00 0.00 0.00 91 1015.2
20260902111004 60 176 0.0 0.0 0.00 0.00 0.00 92 1015.2
20260902110007 60 176 0.0 0.0 0.00 0.00 0.00 91 1015.1
20260902105004 60 176 0.0 0.0 0.00 0.00 0.00 90 1015.0
20260902104004 60 176 0.0 0.0 0.00 0.00 0.00 90 1014.9
20260902103004 60 176 0.0 0.0 0.00 0.00 0.00 90 1015.0
20260902102004 61 176 0.0 0.0 0.00 0.00 0.00 90 1015.0
20260902101003 61 176 0.0 0.0 0.00 0.00 0.00 90 1015.0
20260902095004 61 176 0.0 0.0 0.00 0.00 0.00 90 1015.3
20260902093004 61 176 0.0 0.0 0.00 0.00 0.00 89 1015.1
20260902091004 61 176 0.0 0.0 0.00 0.00 0.00 89 1015.3
20260902090005 62 176 0.0 0.0 0.00 0.00 0.00 89 1015.3
20260902084004 62 176 0.0 0.0 0.00 0.00 0.00 89 1015.2
20260902083003 62 176 0.0 0.0 0.00 0.00 0.00 88 1015.4
20260902081003 62 176 0.0 0.0 0.00 0.00 0.00 88 1015.3
20260902075004 63 176 0.0 0.0 0.00 0.00 0.00 86 1015.4
20260902074004 63 176 0.0 0.0 0.00 0.00 0.00 86 1015.3
20260902073004 64 176 0.0 0.0 0.00 0.00 0.00 86 1015.1
20260902072004 64 176 0.0 0.0 0.00 0.00 0.00 85 1015.1
20260902071004 64 176 0.0 0.0 0.00 0.00 0.00 85 1015.0
20260902070007 65 176 0.0 0.0 0.00 0.00 0.00 85 1014.9
20260902065005 65 176 0.0 0.0 0.00 0.00 0.00 84 1014.9
20260902064004 65 176 0.0 0.0 0.00 0.00 0.00 85 1015.0
20260902063004 65 245 0.0 0.0 0.00 0.00 0.00 85 1014.9
20260902062004 64 246 0.0 0.0 0.00 0.00 0.00 84 1015.1
20260902060005 64 246 0.0 0.0 0.00 0.00 0.00 83 1015.0
20260902055004 64 246 0.0 0.0 0.00 0.00 0.00 81 1014.9
20260902054004 65 246 0.0 0.0 0.00 0.00 0.00 81 1014.8
20260902053005 65 246 0.0 0.0 0.00 0.00 0.00 80 1014.7
20260902052004 66 246 0.0 0.0 0.00 0.00 0.00 80 1014.8
20260902051004 66 246 0.0 0.0 0.00 0.00 0.00 79 1014.7
20260902045004 67 246 0.0 0.0 0.00 0.00 0.00 77 1014.6
20260902044004 67 246 0.0 1.0 0.00 0.00 0.00 78 1014.5
20260902042003 67 245 0.0 0.0 0.00 0.00 0.00 79 1014.4
20260902041003 68 299 0.0 0.0 0.00 0.00 0.00 80 1014.2
20260902040003 68 299 0.0 1.0 0.00 0.00 0.00 80 1014.1
20260902035004 68 58 0.0 1.0 0.00 0.00 0.00 80 1013.8
20260902033005 68 319 0.0 2.0 0.00 0.00 0.00 79 1013.6
20260902032005 68 273 0.0 2.0 0.00 0.00 0.00 78 1013.5
20260902031006 68 245 0.0 2.0 0.00 0.00 0.00 79 1013.6
20260902030004 69 56 0.0 2.0 0.00 0.00 0.00 80 1013.4
20260902025005 69 302 0.0 2.0 0.00 0.00 0.00 78 1013.4
20260902024005 69 56 0.0 1.0 0.00 0.00 0.00 76 1013.3
20260902023004 70 183 0.0 1.0 0.00 0.00 0.00 75 1013.0
20260902022005 70 277 0.0 2.0 0.00 0.00 0.00 74 1013.0
20260902021004 71 269 0.0 2.0 0.00 0.00 0.00 74 1012.9
20260902020004 71 122 0.0 2.0 0.00 0.00 0.00 73 1013.1
20260902015004 72 44 0.0 1.0 0.00 0.00 0.00 72 1013.1
20260902014004 73 55 0.0 4.0 0.00 0.00 0.00 72 1013.1
20260902013004 73 29 0.0 4.0 0.00 0.00 0.00 70 1013.2
20260902012004 75 288 0.0 4.0 0.00 0.00 0.00 68 1013.2
20260902011004 76 332 0.0 2.0 0.00 0.00 0.00 66 1013.3
20260902010005 75 335 0.0 4.0 0.00 0.00 0.00 66 1013.4
20260902004004 76 58 0.0 4.0 0.00 0.00 0.00 65 1013.4
20260902003004 76 28 1.0 2.0 0.00 0.00 0.00 65 1013.3
20260902002004 77 54 0.0 4.0 0.00 0.00 0.00 65 1013.2
20260902001004 77 357 0.0 4.0 0.00 0.00 0.00 63 1013.3
20260901235004 78 41 0.0 8.0 0.00 0.00 0.00 62 1013.4
20260901234004 78 248 0.0 5.0 0.00 0.00 0.00 63 1013.5
20260901233004 79 27 0.0 5.0 0.00 0.00 0.00 62 1013.6
20260901232005 79 27 0.0 9.0 0.00 0.00 0.00 61 1013.5
20260901230006 80 55 2.0 6.0 0.00 0.00 0.00 59 1013.5
20260901225004 81 268 0.0 5.0 0.00 0.00 0.00 58 1013.5
20260901224005 81 29 0.0 4.0 0.00 0.00 0.00 59 1013.6
20260901223004 81 34 0.0 3.0 0.00 0.00 0.00 59 1013.7
20260901222004 80 37 0.0 8.0 0.00 0.00 0.00 61 1013.8
20260901221004 81 47 0.0 5.0 0.00 0.00 0.00 59 1014.0
20260901220005 81 176 0.0 5.0 0.00 0.00 0.00 59 1014.1
20260901215004 80 320 0.0 4.0 0.00 0.00 0.00 60 1014.1
20260901214004 80 36 0.0 7.0 0.00 0.00 0.00 60 1014.2
20260901213004 81 30 0.0 6.0 0.00 0.00 0.00 60 1014.3
20260901212004 81 266 0.0 5.0 0.00 0.00 0.00 58 1014.3
20260901211004 82 135 0.0 6.0 0.00 0.00 0.00 58 1014.3
20260901210005 82 262 0.0 4.0 0.00 0.00 0.00 58 1014.4
20260901205004 82 290 2.0 5.0 0.00 0.00 0.00 57 1014.4
20260901204004 82 41 0.0 4.0 0.00 0.00 0.00 56 1014.5
20260901203004 83 304 3.0 7.0 0.00 0.00 0.00 55 1014.4
20260901202004 85 288 0.0 1.0 0.00 0.00 0.00 53 1014.6
20260901201004 85 4 0.0 4.0 0.00 0.00 0.00 53 1014.7
20260901200006 85 297 0.0 2.0 0.00 0.00 0.00 54 1014.8
20260901195004 85 182 0.0 1.0 0.00 0.00 0.00 52 1014.9